Regional Weather Roundup
Issued by NWS

Home | Current Version | Previous Version | Text Only | Print | Product List | Glossary On
Versions: 1 2 3 4 5 6 7 8 9 10 11 12 13 14 15 16 17 18 19 20 21 22 23 24 25 26 27 28 29 30 31 32 33 34 35 36 37 38 39 40 41 42 43 44 45 46 47 48 49 50
000
ASUS43 KDMX 030107
RWRIA

WEATHER ROUNDUP FOR IOWA
NATIONAL WEATHER SERVICE DES MOINES IA
800 PM CDT TUE JUN 02 2015

NOTE: "FAIR" INDICATES FEW OR NO CLOUDS BELOW 12,000 FEET WITH NO
SIGNIFICANT WEATHER AND/OR OBSTRUCTIONS TO VISIBILITY.

* - THESE STATIONS ARE NOT NWS STATIONS...THUS NOT UNDER NWS
QUALITY CONTROL.  THEY ALSO DO NOT REPORT WEATHER SUCH
AS PRECIPITATION OR FOG.

IAZ001>003-012>014-020>022-031>034-043>046-030200-
   NORTHWEST IOWA

CITY           SKY/WX    TMP DP  RH WIND       PRES   REMARKS
CARROLL *      CLEAR     70  57  64 S17G26    29.93S
CHEROKEE *     CLEAR     72  57  60 S18G24    29.89R
DENISON *      CLEAR     70  59  68 S18G28    29.89S
LE MARS *      CLEAR     77  61  57 S20       29.86R
ORANGE CITY *  CLEAR     75  59  57 S15G24    29.86R
SHELDON *      CLEAR     75  57  53 S22G30    29.85S
SIOUX CITY     PTCLDY    76  60  57 S17       29.86R
SPENCER        CLEAR     73  56  54 S23       29.89S
STORM LAKE *   CLEAR     72  55  56 SE22G29   29.91S
$$

IAZ055>058-069>071-079>083-090>094-030200-
   SOUTHWEST IOWA

CITY           SKY/WX    TMP DP  RH WIND       PRES   REMARKS
ATLANTIC *     CLEAR     70  57  64 S18G26    29.94R
AUDUBON *      CLEAR     70  57  64 S14G21    29.95S
CLARINDA *     CLOUDY    64  61  88 SE8G14    29.96R
COUNCIL BLFS * CLEAR     68  63  83 SE18G24   29.93R
CRESTON *      CLEAR     66  57  72 S13       29.97F
HARLAN  *      CLEAR     70  61  73 SE17G28   29.96R
LAMONI         PTCLDY    69  56  62 SE8       29.99R
RED OAK *      CLEAR     64  61  88 SE15G22   29.94F
SHENANDOAH *   CLOUDY    68  59  73 SE22G30   29.92F
$$

IAZ047>049-059>061-072>074-084-030200-
   CENTRAL IOWA

CITY           SKY/WX    TMP DP  RH WIND       PRES   REMARKS
AMES           MOCLDY    67  55  65 S10       29.97S
ANKENY *       CLEAR     68  57  68 SE10      29.97F
CHARITON *     CLEAR     66  57  72 SE10      29.99F
DES MOINES     MOCLDY    69  55  60 S12       29.97S
GRINNELL*      MOCLDY    66  54  63 SE12      30.01S
KNOXVILLE *    CLEAR     66  55  68 S10G17    29.98F
MARSHALLTOWN   MOCLDY    67  54  63 S15       29.99S
PELLA *        PTCLDY    66  59  77 SE5       30.01S
PERRY *          N/A     68  55  64 SE15G21   29.96S
$$

IAZ004>006-015-016-023>025-035-036-030200-
   NORTH CENTRAL IOWA

CITY           SKY/WX    TMP DP  RH WIND       PRES   REMARKS
ALGONA *       CLEAR     70  55  60 SE18G28   29.93S
CLARION *      CLEAR     70  52  52 S18G25    29.95S
ESTHERVILLE    PTCLDY    71  54  54 S24G31    29.90S
FORT DODGE *   MOCLDY    68  54  60 SE12G18   29.96R
MASON CITY     PTCLDY    71  53  52 S18       29.96F
FOREST CITY *  CLEAR     68  52  56 SE16G22   29.95R
IOWA FALLS *     N/A     68  54  60 SE13      29.99S
$$

IAZ007>011-017>019-026>030-037>042-050>054-066-030200-
   NORTHEAST IOWA

CITY           SKY/WX    TMP DP  RH WIND       PRES   REMARKS
CEDAR RAPIDS   PTCLDY    67  55  65 S9        30.01F
CHARLES CITY * PTCLDY    72  52  49 S13G20    29.99S
CLINTON *      MOCLDY    70  46  43 S7        30.06F
DECORAH *      CLEAR     70  50  49 S7G14     30.00S
DUBUQUE        MOCLDY    67  50  54 SE5       30.04F
MONTICELLO *   CLEAR     70  52  52 S9        30.01F
OELWEIN *      CLEAR     70  50  49 S9        30.01S
WATERLOO       PTCLDY    69  53  56 S12       29.98S
$$

IAZ064-065-067-068-078-030200-
   EAST CENTRAL IOWA

CITY           SKY/WX    TMP DP  RH WIND       PRES   REMARKS
DAVENPORT      MOCLDY    70  48  45 S8        30.04S
IOWA CITY      PTCLDY    69  54  58 S10       30.03F
MT. PLEASANT * PTCLDY    66  55  68 SE3       30.03F
MUSCATINE *    MOCLDY    70  54  56 S6        30.03F
QUAD CITIES    MOCLDY    70  52  52 S3        30.04R
$$

IAZ062-063-075>077-085>089-095>099-030200-
   SOUTHEAST IOWA

CITY           SKY/WX    TMP DP  RH WIND       PRES   REMARKS
BURLINGTON     PTCLDY    68  56  65 SE3       30.03F
FAIRFIELD *    MOCLDY    68  54  60 SE8       30.03F
FORT MADISON *   N/A     68  59  73 CALM      30.04F
KEOKUK *       CLEAR     68  57  68 S3        30.02F
OSKALOOSA *      N/A     68  55  64 S13       30.01F
CENTERVILLE *  CLEAR     64  64 100 SE9       30.02F
OTTUMWA        MOCLDY    67  56  67 S10       30.01F
WASHINGTON *   MOCLDY    68  55  64 S6        30.04F
$$

ABBREVIATIONS USED IN REMARKS
   TC - TEMPERATURES IN CELSIUS
  WCI - WIND CHILL INDEX
   HX - HEAT INDEX
  VSB - VISIBILITY
$$



USA.gov is the U.S. government's official web portal to all federal, state and local government web resources and services.